Location: Sunny Point
(33.0946°N, 85.0574°W)
Time: 00:34:58
(UTC+00:00)

N. Korean satellite - Visible Passes

Search period start: 07 December 2022 00:00
Search period end: 17 December 2022 00:00
Orbit: 421 x 453 km, 97.3° (Epoch: 06 December)

Date Brightness Start Highest point End Pass type
(mag) Time Alt. Az. Time Alt. Az. Time Alt. Az.
07 Dec 6.3 10:54:43 10° NNE 10:58:06 89° E 11:01:24 10° SSW visible
08 Dec 9.0 10:16:24 10° NE 10:19:02 21° E 10:21:36 10° SSE visible
08 Dec 8.1 11:49:25 10° NW 11:51:17 14° WNW 11:53:08 10° WSW visible
09 Dec 6.4 11:09:11 10° N 11:12:27 52° WNW 11:15:40 10° SSW visible
09 Dec 9.7 23:07:33 10° SW 23:09:41 16° W 23:11:51 10° NW visible
10 Dec 8.1 10:30:18 10° NNE 10:33:22 34° E 10:36:24 10° SSE visible
11 Dec 7.1 11:23:37 10° N 11:26:37 31° WNW 11:29:34 10° SW visible
12 Dec 6.9 10:44:14 10° NNE 10:47:32 58° E 10:50:46 10° S visible
13 Dec 9.5 10:06:17 10° ENE 10:08:12 15° E 10:10:06 10° SE visible
13 Dec 7.7 11:38:07 10° NNW 11:40:36 20° WNW 11:43:02 10° WSW visible
14 Dec 6.1 10:58:32 13° N 11:01:31 81° WNW 11:04:47 10° SSW visible
15 Dec 8.8 10:19:30 10° NE 10:22:10 22° E 10:24:48 10° SSE visible
15 Dec 8.2 11:52:53 10° NW 11:54:23 13° WNW 11:55:55 10° W visible
16 Dec 6.5 11:13:40 24° NNW 11:15:18 47° WNW 11:18:26 10° SSW visible
16 Dec 9.7 23:10:28 10° SW 23:12:26 15° W 23:14:25 10° WNW visible
